Weather History for TIST - October, 2011

Change the Weather History Date:

Tuesday, October 4, 2011

  Actual Average Record
Temperature  
Mean Temperature 82 °F 83 °F  
Max Temperature 87 °F 89 °F 97 °F (1992)
Min Temperature 77 °F 77 °F 69 °F (1954)
Degree Days  
Heating Degree Days 0 0  
Month to date heating degree days 0 0  
Since 1 July heating degree days 0 0  
Cooling Degree Days 17 18  
Month to date cooling degree days 70 72  
Year to date cooling degree days 4295 4631  
Growing Degree Days 32 (Base 50)    
Moisture  
Dew Point 74 °F    
Average Humidity 78    
Maximum Humidity 91    
Minimum Humidity 65    
Precipitation  
Precipitation T in 0.16 in 1.39 in (1980)
Month to date precipitation 0.04 0.64  
Year to date precipitation 35.80 26.37  
Snow  
Snow 0.00 in - - ()
Month to date snowfall 0.0  
Since 1 July snowfall 0.0  
Since 1 September snowfall 0.0  
Snow Depth 0.00 in    
Sea Level Pressure  
Sea Level Pressure 29.95 in    
Wind  
Wind Speed 8 mph (ENE)    
Max Wind Speed 17 mph    
Max Gust Speed 21 mph    
Visibility 10 miles    
Events Rain    
T = Trace of Precipitation, MM = Missing Value Source: NWS Daily Summary

Daily Weather History Graph

Daily Weather History Graph

Search for Another Location

Airport or City:

Trip Planner

Search our weather history database for the weather conditions in past years. The results will help you decide how hot, cold, wet, or windy it might be!

Date:

Astronomy

Oct. 04, 2011 Rise Set
Actual Time 6:10 AM AST 6:06 PM AST
Civil Twilight 5:49 AM AST 6:27 PM AST
Nautical Twilight 5:23 AM AST 6:53 PM AST
Astronomical Twilight 4:58 AM AST 7:18 PM AST
Moon 1:12 PM AST (10/4) No Moon Set
Length of Visible Light 12h 38m
Length of Day
11h 55m
First Quarter, 56% of the Moon is Illuminated
Oct 4
First Quarter
Oct 11
Full
Oct 19
Last Quarter
Oct 26
New
Nov 2
First Quarter

Hourly Weather History & Observations

Time (AST) Temp. Heat Index Dew Point Humidity Pressure Visibility Wind Dir Wind Speed Gust Speed Precip Events Conditions
12:53 AM 79.0 °F - 73.0 °F 82% 29.96 in 10.0 mi NE 9.2 mph - N/A   Clear
1:53 AM 79.0 °F - 73.0 °F 82% 29.94 in 10.0 mi ENE 6.9 mph - N/A   Clear
2:53 AM 79.0 °F - 73.0 °F 82% 29.93 in 10.0 mi ENE 8.1 mph - N/A   Clear
3:53 AM 77.0 °F - 73.0 °F 88% 29.93 in 10.0 mi NE 6.9 mph - 0.00 in Rain Light Rain
4:53 AM 79.0 °F - 75.0 °F 88% 29.93 in 10.0 mi ENE 5.8 mph - 0.00 in   Clear
5:53 AM 79.0 °F - 75.0 °F 88% 29.94 in 10.0 mi ENE 4.6 mph - N/A   Clear
6:53 AM 80.1 °F 85.1 °F 75.0 °F 85% 29.97 in 10.0 mi ENE 6.9 mph - N/A   Clear
7:53 AM 82.0 °F 88.6 °F 75.0 °F 79% 29.99 in 10.0 mi ENE 9.2 mph - N/A   Clear
8:53 AM 84.0 °F 91.2 °F 73.9 °F 72% 30.00 in 10.0 mi NE 12.7 mph - N/A   Clear
9:53 AM 84.0 °F 89.0 °F 71.1 °F 65% 30.00 in 10.0 mi NE 6.9 mph - N/A   Overcast
10:53 AM 84.9 °F 93.3 °F 75.0 °F 72% 29.99 in 10.0 mi East 10.4 mph - N/A   Clear
11:53 AM 86.0 °F 93.8 °F 73.9 °F 67% 29.97 in 10.0 mi ESE 11.5 mph - N/A   Scattered Clouds
12:53 PM 86.0 °F 93.0 °F 73.0 °F 65% 29.94 in 10.0 mi ESE 11.5 mph - N/A   Clear
1:53 PM 84.9 °F 93.3 °F 75.0 °F 72% 29.93 in 10.0 mi East 11.5 mph - N/A   Mostly Cloudy
2:02 PM 86.0 °F 93.4 °F 73.4 °F 66% 29.92 in 10.0 mi East 12.7 mph - N/A   Mostly Cloudy
2:53 PM 87.1 °F 96.3 °F 75.0 °F 67% 29.91 in 10.0 mi NE 9.2 mph 18.4 mph N/A   Scattered Clouds
3:53 PM 81.0 °F 86.2 °F 73.9 °F 79% 29.91 in 10.0 mi NNE 6.9 mph - N/A   Clear
4:53 PM 81.0 °F 86.7 °F 75.0 °F 82% 29.91 in 10.0 mi NNE 5.8 mph - N/A   Clear
5:53 PM 81.0 °F 86.7 °F 75.0 °F 82% 29.91 in 10.0 mi ENE 5.8 mph - N/A   Clear
6:53 PM 80.1 °F 84.5 °F 73.9 °F 81% 29.92 in 10.0 mi NE 5.8 mph - N/A   Clear
7:53 PM 80.1 °F 84.5 °F 73.9 °F 81% 29.94 in 10.0 mi NE 9.2 mph - N/A   Clear
8:53 PM 80.1 °F 84.5 °F 73.9 °F 81% 29.96 in 10.0 mi ENE 5.8 mph - N/A   Clear
9:53 PM 80.1 °F 84.5 °F 73.9 °F 81% 29.96 in 4.0 mi NE 6.9 mph - N/A   Haze
10:53 PM 80.1 °F 84.2 °F 73.0 °F 79% 29.95 in 10.0 mi ENE 6.9 mph - N/A   Clear
11:53 PM 80.1 °F 84.5 °F 73.9 °F 81% 29.95 in 10.0 mi ENE 6.9 mph - N/A   Scattered Clouds